Weather observations for the past three days for
Bisbee Douglas International Airport
Imperial (Metric)
Date Time (mst) Wind (mph) Vis. (mi.) Weather Sky Cond. Temperature (ºF) Relative Humidity Wind Chill (°F) Heat Index (°F) Pressure Precipitation (in)
Air Dwpt 6 hour altimeter (in) sea level (mb) 1 hr 3 hr 6 hr
Max. Min.
14 14:56 Calm 10.00 Partly Cloudy SCT100 95 51.1 23% 92 30.12 1011.7
13 15:56 N 7 10.00 NULL NULL 99 39.9 13% 94 30.09 1010.7
13 11:56 Vrbl 7 G 18 10.00 Fair CLR 93.9 39.9 15% 90 30.18 1013.2
13 10:56 Calm 10.00 Fair CLR 91 51.1 91 63 26% 88 30.19 1013.8
13 09:56 Vrbl 3 10.00 Fair CLR 87.1 53.1 31% 85 30.2 1014.4
13 08:56 S 7 10.00 Fair CLR 84 52 33% 82 30.21 0.0
13 07:56 S 8 10.00 Fair CLR 78.1 52 40% 79 30.21 1015.1
13 06:56 S 3 10.00 Fair CLR 73 41 32% 30.19 1014.5
13 05:56 SW 3 10.00 Fair CLR 63 39 41% 30.17 1014.2
13 04:56 E 5 10.00 Fair CLR 69.1 39 81 66 33% 30.15 1013.0
13 03:56 Calm 10.00 Fair CLR 70 37 30% 30.14 1012.4
13 02:56 NW 3 10.00 Fair CLR 73.9 37 26% 30.12 1011.4
13 01:56 E 6 10.00 Fair CLR 78.1 37 23% 78 30.11 1010.9
13 00:56 E 13 10.00 Fair CLR 80.1 37.9 22% 79 30.13 1011.3
12 23:56 E 10 10.00 Fair CLR 79 37.9 23% 78 30.13 1011.7
12 22:56 E 10 10.00 Fair CLR 81 37 97 80.1 21% 79 30.13 1011.5
12 21:56 E 12 10.00 Fair CLR 82 34 18% 80 30.12 1011.5
12 19:56 E 9 10.00 Fair CLR 87.1 35.1 16% 84 30.08 1010.7
12 18:56 E 10 10.00 Fair CLR 91.9 33.1 12% 88 30.05 1009.9
12 17:56 E 15 G 21 10.00 Fair CLR 95 37 13% 90 30.04 1009.6
12 16:56 E 17 G 30 10.00 Fair CLR 96.1 39.9 98.1 91 14% 92 30.04 1009.5
12 15:56 NE 14 G 26 10.00 Fair CLR 97 41 14% 93 30.05 1010.0
12 14:56 E 15 G 20 10.00 A Few Clouds FEW120 98.1 43 15% 94 30.07 1010.1
12 13:56 Calm 10.00 Fair CLR 97 45 17% 93 30.09 1010.6
12 12:56 E 13 G 23 10.00 A Few Clouds FEW110 96.1 48 19% 93 30.1 1011.2
12 11:56 E 8 G 23 10.00 Fair CLR 93.9 48.9 21% 91 30.12 1012.1
12 10:56 E 6 G 23 10.00 A Few Clouds FEW100 93 50 93 62.1 23% 90 30.13 1012.3
12 09:56 SE 9 10.00 Fair CLR 90 51.1 26% 87 30.14 1012.6
12 08:56 SE 5 10.00 Fair CLR 84 51.1 32% 82 30.15 1013.5
12 07:56 Calm 10.00 Fair CLR 75.9 55 48% 78 30.15 1013.6
12 06:56 Calm 10.00 Fair CLR 69.1 55.9 63% 30.15 1014.2
12 05:56 N 6 10.00 Fair CLR 63 55 76% 30.13 1013.4
12 04:56 NE 7 10.00 Fair CLR 63 55 73 62.1 76% 30.11 1012.7
12 03:56 Calm 10.00 Fair CLR 63 53.1 70% 30.1 1012.2
12 02:56 N 9 10.00 Fair CLR 64.9 54 68% 30.08 1011.9
12 01:56 N 9 10.00 Fair CLR 69.1 54 59% 30.09 1011.9
12 00:56 N 3 10.00 Fair CLR 69.1 55.9 63% 30.11 1011.6
11 23:56 NE 5 10.00 Fair CLR 70 55 59% 30.11 1011.7
11 22:56 N 8 10.00 Fair CLR 73 53.1 91.9 73 50% 30.1 1011.3
11 21:56 N 12 10.00 Fair CLR 75 54 48% 78 30.09 1011.0
Date Time (mst) Wind (mph) Vis. (mi.) Weather Sky Cond. Air Dwpt Max. Min. Relative Humidity Wind Chill (°F) Heat Index (°F) altimeter (in) sea level (mb) 1 hr 3 hr 6 hr
6 hour
Temperature (ºF) Pressure Precipitation (in)